FW4179 Weather Reports


Display with metric or nautical units.
time (UTC)temp
F
wind
direction
speed
MPH
gust
MPH
rain 1hr
in
rain 24hr
in
rain mn
in
humidity
%
barometer
mb
20200406015029 68 300 0.0 1.0 0.00 0.00 0.00 60 1017.9
20200406014559 68 300 0.0 1.0 0.00 0.00 0.00 60 1017.9
20200406014015 68 300 0.0 2.0 0.00 0.00 0.00 59 1017.8
20200406013514 69 300 0.0 2.0 0.00 0.00 0.00 59 1017.7
20200406013027 69 300 0.0 1.0 0.00 0.00 0.00 59 1017.7
20200406012519 69 300 0.0 0.0 0.00 0.00 0.00 58 1017.6
20200406012015 69 300 0.0 0.0 0.00 0.00 0.00 58 1017.5
20200406011529 69 300 0.0 0.0 0.00 0.00 0.00 58 1017.6
20200406011016 69 300 0.0 0.0 0.00 0.00 0.00 58 1017.5
20200406010514 69 300 0.0 1.0 0.00 0.00 0.00 58 1017.4
20200406010023 69 300 0.0 2.0 0.00 0.00 0.00 58 1017.4
20200406005516 70 300 0.0 3.0 0.00 0.00 0.00 58 1017.2
20200406005018 70 300 1.0 3.0 0.00 0.00 0.00 58 1017.3
20200406004526 70 300 2.0 5.0 0.00 0.00 0.00 58 1017.2
20200406004016 70 298 2.0 5.0 0.00 0.00 0.00 58 1017.2
20200406003513 70 307 1.0 4.0 0.00 0.00 0.00 59 1017.0
20200406003013 70 307 2.0 4.0 0.00 0.00 0.00 58 1017.1
20200406002512 70 304 2.0 4.0 0.00 0.00 0.00 58 1017.1
20200406002012 70 305 2.0 4.0 0.00 0.00 0.00 58 1017.1
20200406001524 71 302 2.0 4.0 0.00 0.00 0.00 58 1016.9
20200406001013 71 302 2.0 4.0 0.00 0.00 0.00 56 1016.8
20200406000515 71 306 2.0 4.0 0.00 0.00 0.00 56 1016.8
20200406000037 72 309 2.0 4.0 0.00 0.00 0.00 57 1016.7
20200405235511 72 300 2.0 4.0 0.00 0.00 0.00 55 1016.8
20200405235011 73 300 2.0 4.0 0.00 0.00 0.00 55 1016.7
20200405234610 73 314 1.0 6.0 0.00 0.00 0.00 53 1016.7
20200405234011 73 318 3.0 8.0 0.00 0.00 0.00 54 1016.7
20200405233517 73 278 5.0 8.0 0.00 0.00 0.00 51 1016.7
20200405233029 74 305 2.0 5.0 0.00 0.00 0.00 52 1016.6
20200405232520 74 294 2.0 5.0 0.00 0.00 0.00 53 1016.6
20200405232011 75 298 2.0 5.0 0.00 0.00 0.00 50 1016.5
20200405231520 75 306 1.0 5.0 0.00 0.00 0.00 47 1016.5
20200405231015 75 314 2.0 5.0 0.00 0.00 0.00 49 1016.5
20200405230511 76 323 2.0 8.0 0.00 0.00 0.00 48 1016.5
20200405230036 76 304 4.0 9.0 0.00 0.00 0.00 47 1016.5
20200405225510 76 289 3.0 9.0 0.00 0.00 0.00 47 1016.5
20200405225010 76 320 2.0 6.0 0.00 0.00 0.00 45 1016.4
20200405224511 76 293 3.0 6.0 0.00 0.00 0.00 45 1016.5
20200405224010 76 296 3.0 8.0 0.00 0.00 0.00 46 1016.5
20200405223510 76 315 4.0 8.0 0.00 0.00 0.00 47 1016.5
20200405223033 76 284 3.0 8.0 0.00 0.00 0.00 44 1016.5
20200405222515 76 287 4.0 7.0 0.00 0.00 0.00 45 1016.4
20200405222020 76 296 3.0 5.0 0.00 0.00 0.00 45 1016.5
20200405063531 60 339 0.0 0.0 0.00 0.00 0.00 68 1015.7
20200405062528 60 339 0.0 0.0 0.00 0.00 0.00 67 1015.8
20200405062028 60 339 0.0 0.0 0.00 0.00 0.00 67 1015.7
20200405061536 60 339 0.0 0.0 0.00 0.00 0.00 66 1015.7
20200405061027 60 339 0.0 0.0 0.00 0.00 0.00 66 1015.8
20200405060526 61 339 0.0 0.0 0.00 0.00 0.00 66 1015.8
20200405060126 61 339 0.0 0.0 0.00 0.00 0.00 65 1015.9
20200405055549 61 339 0.0 2.0 0.00 0.00 0.00 65 1015.9
20200405055023 61 339 0.0 4.0 0.00 0.00 0.00 65 1016.0
20200405054534 61 339 1.0 4.0 0.00 0.00 0.00 64 1016.0
20200405054021 61 360 0.0 0.0 0.00 0.00 0.00 63 1016.1
20200405053524 61 14 0.0 0.0 0.00 0.00 0.00 62 1016.0
20200405053033 62 14 0.0 0.0 0.00 0.00 0.00 62 1016.1
20200405052520 62 14 0.0 0.0 0.00 0.00 0.00 61 1016.0
20200405052034 61 14 0.0 0.0 0.00 0.00 0.00 62 1016.1
20200405051547 61 14 0.0 0.0 0.00 0.00 0.00 60 1016.1
20200405051019 62 14 0.0 2.0 0.00 0.00 0.00 59 1016.1
20200405050517 62 14 1.0 2.0 0.00 0.00 0.00 61 1016.1
20200405050033 63 14 0.0 1.0 0.00 0.00 0.00 58 1016.0
20200405045520 63 14 0.0 1.0 0.00 0.00 0.00 57 1016.0
20200405045031 63 14 0.0 0.0 0.00 0.00 0.00 56 1016.1
20200405044533 63 14 0.0 0.0 0.00 0.00 0.00 56 1016.1
20200405044014 63 14 0.0 0.0 0.00 0.00 0.00 56 1016.0
20200405043514 63 14 0.0 0.0 0.00 0.00 0.00 56 1016.0
20200405043025 64 14 0.0 1.0 0.00 0.00 0.00 56 1016.0
20200405042517 64 14 0.0 1.0 0.00 0.00 0.00 55 1016.0
20200405042018 64 14 0.0 1.0 0.00 0.00 0.00 55 1015.9
20200405041515 64 14 0.0 1.0 0.00 0.00 0.00 55 1015.8
20200405041014 64 14 0.0 2.0 0.00 0.00 0.00 55 1015.8
20200405040514 64 14 0.0 2.0 0.00 0.00 0.00 55 1015.7
20200405040014 64 14 0.0 2.0 0.00 0.00 0.00 55 1015.8
20200405035515 64 14 0.0 1.0 0.00 0.00 0.00 55 1015.8
20200405035013 64 14 0.0 1.0 0.00 0.00 0.00 55 1015.9
20200405034518 64 14 0.0 1.0 0.00 0.00 0.00 54 1015.9
20200405034034 65 14 0.0 1.0 0.00 0.00 0.00 54 1015.8
20200405033512 65 14 0.0 1.0 0.00 0.00 0.00 54 1015.7
20200405033027 65 14 0.0 1.0 0.00 0.00 0.00 54 1015.7
20200405032513 65 14 0.0 1.0 0.00 0.00 0.00 53 1015.7
20200405032013 65 14 0.0 2.0 0.00 0.00 0.00 53 1015.8
20200405031524 65 14 0.0 2.0 0.00 0.00 0.00 53 1015.7
20200405031019 65 14 0.0 3.0 0.00 0.00 0.00 53 1015.7
20200405030512 65 14 1.0 3.0 0.00 0.00 0.00 53 1015.6
20200405030052 65 13 0.0 2.0 0.00 0.00 0.00 53 1015.7
20200405025511 65 13 0.0 2.0 0.00 0.00 0.00 53 1015.6
20200405025012 66 13 1.0 2.0 0.00 0.00 0.00 53 1015.5
20200405024531 66 13 1.0 2.0 0.00 0.00 0.00 53 1015.6
20200405024011 66 12 1.0 3.0 0.00 0.00 0.00 53 1015.5
20200405023511 66 11 1.0 3.0 0.00 0.00 0.00 53 1015.5
20200405023035 66 5 1.0 3.0 0.00 0.00 0.00 53 1015.4
20200405022511 66 355 1.0 3.0 0.00 0.00 0.00 52 1015.4
20200405022024 66 346 1.0 2.0 0.00 0.00 0.00 52 1015.3
20200405021512 66 346 1.0 2.0 0.00 0.00 0.00 52 1015.3
20200405021011 66 342 0.0 2.0 0.00 0.00 0.00 52 1015.3
20200405020515 66 342 0.0 2.0 0.00 0.00 0.00 52 1015.3
20200405020012 67 342 0.0 2.0 0.00 0.00 0.00 51 1015.2
20200405015512 67 342 0.0 2.0 0.00 0.00 0.00 51 1015.3